#timestamp,LO_Frequency,Hit,StdDev 
1636495215.5,286047002.8,N
1636495235.3,286047002.7,N
1636495255.2,286047002.4,N
1636495275.0,286047002.3,N
1636495275.9,286047002.3,N
1636495295.8,286046999.8,N
1636495315.6,286046998.1,N
1636495335.4,286047000.4,N
1636495355.3,286046998.1,N
1636495375.1,286047000.0,N
1636495395.8,286047000.5,N
1636495415.7,286047002.8,N
1636495435.5,286047002.0,N
1636495455.4,286047002.3,N
1636495475.2,286047001.8,N
1636495495.0,286047004.4,Y
1636495495.9,286047004.4,P
1636495515.8,286046999.9,N
1636495535.6,286047001.0,N
1636495555.5,286046998.2,N
1636495575.3,286046998.5,N
1636495595.1,286047000.0,N
1636495615.9,286046999.9,N
1636495635.7,286047000.2,N
1636495655.5,286047002.4,N
1636495675.4,286047002.8,N
1636495695.2,286047001.9,N
1636495715.1,286047002.7,N
1636495716.0,286047002.7,N
1636495735.8,286047002.0,N
1636495755.6,286047000.4,N
1636495775.5,286046998.8,N
1636495795.3,286046999.0,N
1636495815.1,286046999.4,N
1636495835.9,286046997.1,N
1636495855.7,286046999.4,N
1636495875.6,286046998.9,N
1636495895.4,286047001.2,N
1636495915.2,286046998.3,N
1636495935.1,286046999.3,N
1636495936.0,286046999.3,N
1636495955.8,286046996.8,N
1636495975.7,286046999.1,N
1636495995.5,286046998.5,N
1636496015.3,286046998.8,N
1636496035.2,286047001.0,N
1636496055.0,286046998.6,N
1636496055.9,286046998.6,N
1636496075.8,286047001.0,N
1636496095.6,286046999.8,N
1636496115.4,286047000.0,N
1636496135.3,286046999.9,N
1636496155.1,286047002.6,N
1636496175.8,286047002.6,N
1636496195.7,286047002.0,N
1636496215.5,286047002.5,N
1636496235.4,286047000.6,N
1636496255.2,286047001.1,N
1636496275.0,286047000.3,N
1636496275.9,286047000.3,N
1636496295.8,286047002.7,N
1636496315.6,286047002.3,N
1636496335.4,286047002.7,N
1636496355.3,286046999.7,N
1636496375.1,286046999.9,N
1636496395.9,286046999.9,N
1636496415.7,286047002.7,N
1636496435.5,286046999.9,N
1636496455.4,286047000.9,N
1636496475.2,286047000.3,N
1636496495.1,286047001.9,N
1636496496.0,286047001.9,N
1636496515.8,286047000.1,N
1636496535.6,286047002.3,N
1636496555.5,286047000.0,N
1636496575.3,286047000.7,N
1636496595.1,286047000.5,N
1636496615.9,286047000.1,N
1636496635.7,286046999.8,N
1636496655.6,286047002.5,N
1636496675.4,286047001.9,N
1636496695.2,286047001.5,N
1636496715.1,286047004.0,Y
1636496716.0,286047004.0,P
1636496735.8,286047001.9,N
1636496755.6,286047002.2,N
1636496775.5,286047002.7,N
1636496795.3,286047002.5,N
1636496815.2,286047002.0,N
1636496835.9,286047004.3,Y
1636496855.7,286047000.7,P
1636496875.6,286046998.7,N
1636496895.4,286046999.4,N
1636496915.2,286046996.6,N
1636496935.1,286046996.6,N
1636496936.0,286046996.6,N
1636496955.8,286046999.2,N
1636496975.7,286046999.2,N
1636496995.5,286046997.7,N
1636497015.3,286046997.4,N
1636497035.2,286046996.7,N
1636497055.0,286046997.1,N
1636497055.9,286046997.1,N
1636497075.8,286046997.7,N
1636497095.6,286046999.5,N
1636497115.4,286046999.3,N
1636497135.3,286046999.5,N
1636497155.1,286046998.9,N
1636497175.8,286046999.1,N
1636497195.7,286046996.5,N
1636497215.5,286046999.4,N
1636497235.4,286046998.2,N
1636497255.2,286046998.6,N
1636497275.0,286046998.6,N
1636497275.9,286046998.6,N
1636497295.8,286047001.2,N
1636497315.6,286046998.7,N
1636497335.4,286047001.2,N
1636497355.3,286047001.1,N
1636497375.1,286047000.3,N
1636497395.9,286047000.9,N
1636497415.7,286047000.5,N
1636497435.5,286047000.0,N
1636497455.4,286046999.8,N
1636497475.2,286047000.7,N
1636497495.0,286047000.4,N
1636497495.9,286047000.4,N
1636497515.8,286047001.2,N
1636497535.6,286047001.2,N
1636497555.5,286046999.7,N
1636497575.3,286047002.3,N
1636497595.1,286047002.4,N
1636497615.9,286046999.8,N
1636497635.7,286047001.2,N
1636497655.5,286046998.6,N
1636497675.4,286046998.4,N
1636497695.2,286047001.2,N
1636497715.1,286047001.1,N
1636497716.0,286047001.1,N
1636497735.8,286046998.8,N
1636497755.6,286046998.4,N
1636497775.5,286046998.7,N
1636497795.3,286046998.6,N
1636497815.1,286046998.2,N
1636497835.9,286046998.5,N
1636497855.7,286047000.8,N
1636497875.6,286047000.7,N
1636497895.4,286046998.4,N
1636497915.2,286046998.4,N
1636497935.1,286046998.3,N
1636497936.0,286046998.3,N
1636497955.8,286047001.2,N
1636497975.6,286046999.0,N
1636497995.5,286046998.4,N
1636498015.3,286047000.8,N
1636498035.2,286046998.6,N
1636498055.9,286046998.3,N
1636498075.7,286046998.1,N
1636498095.6,286047000.0,N
1636498115.4,286046999.8,N
1636498135.2,286046998.2,N
1636498155.1,286047000.8,N
1636498156.0,286047000.8,N
1636498175.8,286046998.4,N
1636498195.7,286046998.2,N
1636498215.5,286046998.8,N
1636498235.3,286046998.2,N
1636498255.2,286046999.2,N
1636498275.0,286046998.8,N
1636498275.9,286046998.8,N
1636498295.8,286047001.1,N
1636498315.6,286046999.2,N
1636498335.4,286046999.4,N
1636498355.3,286046998.4,N
1636498375.1,286046996.9,Y
1636498395.9,286046999.5,P
1636498415.7,286046999.6,N
1636498435.5,286046998.6,P
1636498455.4,286046998.2,Y
1636498475.2,286046999.7,P
1636498495.0,286047000.4,N
1636498495.9,286047000.4,N
1636498515.8,286046998.1,Y
1636498535.6,286047000.4,P
1636498555.5,286047000.2,N
1636498575.3,286046999.8,N
1636498595.1,286047000.1,N
1636498615.9,286047002.8,Y
1636498635.7,286046999.9,P
1636498655.6,286047000.6,P
1636498675.4,286047000.5,N
1636498695.2,286046998.1,Y
1636498715.1,286046998.5,P
1636498716.0,286046998.5,N
1636498735.8,286046998.9,N
1636498755.6,286047000.5,N
1636498775.5,286046999.9,N
1636498795.3,286046999.9,N
